This is the latest recevied weather packets stored in our database for station/object K6CED. If no packets are shown the sender has not sent any weather packets the latest 10 day(s).
| Time | Temp. | Humidity | Pressure | Rain* | Wind** | Luminosity | Snow |
|---|---|---|---|---|---|---|---|
| 1787688538 | 37.22° C | 36% | 1016.1 hPa | 0 mm | - | 774 W/m² | - |
| 1787688237 | 36.67° C | 35% | 1016.2 hPa | 0 mm | - | 784 W/m² | - |
| 1787687933 | 36.67° C | 35% | 1016.2 hPa | 0 mm | - | 795 W/m² | - |
| 1787687628 | 36.11° C | 36% | 1016.6 hPa | 0 mm | - | 805 W/m² | - |
| 1787687323 | 36.67° C | 35% | 1016.4 hPa | 0 mm | - | 813 W/m² | - |
| 1787687019 | 37.22° C | 34% | 1016.4 hPa | 0 mm | - | 820 W/m² | - |
| 1787686715 | 36.11° C | 35% | 1016.4 hPa | 0 mm | - | 825 W/m² | - |
| 1787686410 | 35.56° C | 35% | 1016.4 hPa | 0 mm | - | 830 W/m² | - |
| 1787686107 | 36.67° C | 34% | 1016.9 hPa | 0 mm | - | 834 W/m² | - |
| 1787685802 | 36.11° C | 34% | 1016.5 hPa | 0 mm | - | 835 W/m² | - |
| 1787685497 | 36.11° C | 34% | 1016.4 hPa | 0 mm | - | 838 W/m² | - |
| 1787685196 | 36.67° C | 34% | 1016.7 hPa | 0 mm | - | 838 W/m² | - |
| 1787684891 | 36.67° C | 33% | 1016.9 hPa | 0 mm | - | 836 W/m² | - |
| 1787684587 | 36.11° C | 34% | 1016.6 hPa | 0 mm | - | 836 W/m² | - |
| 1787684280 | 36.11° C | 34% | 1017 hPa | 0 mm | - | 831 W/m² | - |
| 1787683971 | 36.11° C | 34% | 1017.1 hPa | 0 mm | - | 829 W/m² | - |
| 1787683669 | 35.56° C | 35% | 1016.9 hPa | 0 mm | - | 824 W/m² | - |
| 1787683365 | 35° C | 35% | 1017.1 hPa | 0 mm | - | 821 W/m² | - |
| 1787683061 | 35.56° C | 35% | 1017 hPa | 0 mm | - | 816 W/m² | - |
| 1787682758 | 35° C | 36% | 1016.7 hPa | 0 mm | - | 809 W/m² | - |
| 1787682448 | 35.56° C | 35% | 1017.2 hPa | 0 mm | - | 804 W/m² | - |
| 1787682144 | 35.56° C | 36% | 1017.2 hPa | 0 mm | - | 799 W/m² | - |
| 1787681838 | 35° C | 36% | 1017.2 hPa | 0 mm | - | 792 W/m² | - |
| 1787681533 | 35° C | 36% | 1017.2 hPa | 0 mm | - | 786 W/m² | - |
| 1787681227 | 35° C | 37% | 1017.4 hPa | 0 mm | - | 776 W/m² | - |
* Rain latest hour (hover to see other rain measurements)
** Current wind speed in m/s (hover to see current wind gust speed)